Regional Weather Roundup
Issued by NWS State College, PA

Home | Current Version | Previous Version | Text Only | Print | Product List | Glossary Off
Versions: 1 2 3 4 5 6 7 8 9 10 11 12 13 14 15 16 17 18 19 20 21 22 23 24 25 26 27 28 29 30 31 32 33 34 35 36 37 38 39 40 41 42 43 44 45 46 47 48 49 50

000
ASUS41 KCTP 290703
RWRCTP

REGIONAL WEATHER ROUNDUP
NATIONAL WEATHER SERVICE STATE COLLEGE PA
300 AM EDT SAT AUG 29 2015

Note: "fair" indicates few or no clouds below 12,000 feet with no
significant weather and/or obstructions to visibility.

* = STATION THAT DOES NOT REPORT PRECIPITATION /E.G. RAIN...SNOW...ETC/
    THUNDER OR FOG.

PAZ002>004-007>009-013>016-020>023-029>032-290800-
WESTERN PENNSYLVANIA

CITY           SKY/WX    TMP DP  RH WIND       PRES   REMARKS
ERIE           PTCLDY    59  55  87 CALM      30.16F
MEADVILLE      PTCLDY    61  53  75 CALM      30.18F
FRANKLIN*      PTCLDY    54  52  94 NE3       30.21S
NEW CASTLE     FAIR      54  54 100 CALM      30.19S FOG
BEAVER COUNTY  NOT AVBL
BUTLER*        CLEAR     52  50  93 NE3       30.19F
PITTSBURGH INT PTCLDY    59  53  80 CALM      30.17S
PITTSBURGH     CLEAR     61  50  67 CALM      30.17S
INDIANA*       CLEAR     57  55  94 CALM      30.21F
LATROBE        NOT AVBL
WASHINGTON CO*   N/A     52  52 100 CALM      30.18S VSB 3/4
$$

PAZ004>006-010>012-017>019-024>028-033>037-041-042-045-046-049>053-290800-
CENTRAL PENNSYLVANIA

CITY           SKY/WX    TMP DP  RH WIND       PRES   REMARKS
BRADFORD       PTCLDY    50  47  89 CALM      30.22S
DUBOIS         CLEAR     57  52  83 E5        30.20S
CLEARFIELD     CLEAR     51  50  96 N5        30.21F
JOHNSTOWN      CLEAR     61  54  77 SW5       30.21F
ALTOONA        CLEAR     53  50  89 CALM      30.21F
STATE COLLEGE  CLEAR     56  55  96 CALM      30.20S
WILLIAMSPORT   CLEAR     57  54  89 CALM      30.19F
SELINSGROVE    CLEAR     53  52  96 CALM      30.20F
FT INDIANTOWN  CLEAR     57  56  96 CALM      30.20F
CAPITAL CITY   CLEAR     61  58  90 CALM      30.19F
HARRISBURG     PTCLDY    63  58  83 CALM      30.19F
YORK           CLEAR     55  54  96 CALM      30.20F
$$

PAZ038>040-043-044-047-048-054-055-060>062-067>071-290800-
EASTERN PENNSYLVANIA

CITY           SKY/WX    TMP DP  RH WIND       PRES   REMARKS
SCRANTON       PTCLDY    58  51  78 E7        30.21S
MOUNT POCONO   CLEAR     48  46  93 CALM      30.24F
ALLENTOWN      CLEAR     56  54  93 NW3       30.20F
QUAKERTOWN*    SUNNY     55  54  94 CALM      30.22S
READING        CLEAR     60  56  86 CALM      30.19F
LANCASTER      CLEAR     58  56  93 CALM      30.20F
COATESVILLE    SUNNY     64  59  82 W5        30.22S
POTTSTOWN      CLEAR     57  57 100 CALM      30.22S
BLUE BELL      CLEAR     54  54 100 CALM      30.19F
DOYLESTOWN     CLEAR     56  55  97 CALM      30.20S
WILLOW GROVE   NOT AVBL
NORTH PHILA    CLEAR     61  54  77 CALM      30.20F
PHILADELPHIA   CLEAR     69  61  75 SW3       30.20S
$$


USA.gov is the U.S. government's official web portal to all federal, state and local government web resources and services.